DAL695 KLAS-KSFO

Flight info

Callsign DAL695
Flight time 1h 6m
Altitude 34000
Route JOHKR5 KENNO RUSME DYAMD5
Aircraft A320/M-SDE3FGHIRWY/LB1

Departure

Time 2026-05-07 22:38
Airport Harry Reid International Airport (KLAS)

Arrival

Time 2026-05-07 23:44
Airport San Francisco International Airport (KSFO)
Time Latitude Longitude Altitude Speed Heading
2026-05-07 21:30 36.08091 -115.14018 2092 ft 0 kts 135°
2026-05-07 22:21 36.08099 -115.14027 2092 ft 3 kts 135°
2026-05-07 22:22 36.08115 -115.14048 2091 ft 3 kts 135°
2026-05-07 22:22 36.08132 -115.14068 2090 ft 3 kts 135°
2026-05-07 22:22 36.08148 -115.14089 2090 ft 3 kts 135°
2026-05-07 22:22 36.08155 -115.14096 2090 ft 0 kts 135°
2026-05-07 22:26 36.08154 -115.14096 2090 ft 1 kts 135°
2026-05-07 22:26 36.08150 -115.14097 2090 ft 1 kts 176°
2026-05-07 22:27 36.08148 -115.14101 2090 ft 1 kts 215°
2026-05-07 22:27 36.08143 -115.14109 2090 ft 5 kts 227°
2026-05-07 22:27 36.08115 -115.14143 2091 ft 4 kts 218°
2026-05-07 22:27 36.08100 -115.14152 2091 ft 1 kts 201°
2026-05-07 22:28 36.08099 -115.14152 2091 ft 0 kts 200°
2026-05-07 22:28 36.08090 -115.14155 2092 ft 4 kts 192°
2026-05-07 22:28 36.08071 -115.14156 2092 ft 1 kts 178°
2026-05-07 22:28 36.08047 -115.14155 2093 ft 7 kts 180°
2026-05-07 22:29 36.08005 -115.14156 2094 ft 4 kts 179°
2026-05-07 22:29 36.07963 -115.14156 2094 ft 7 kts 180°
2026-05-07 22:29 36.07917 -115.14155 2094 ft 6 kts 180°
2026-05-07 22:29 36.07874 -115.14155 2094 ft 6 kts 180°
2026-05-07 22:30 36.07830 -115.14128 2094 ft 8 kts 119°
2026-05-07 22:30 36.07827 -115.14063 2093 ft 7 kts 88°
2026-05-07 22:30 36.07827 -115.14013 2094 ft 5 kts 90°
2026-05-07 22:30 36.07827 -115.13959 2094 ft 12 kts 90°
2026-05-07 22:31 36.07827 -115.13856 2093 ft 12 kts 91°
2026-05-07 22:31 36.07827 -115.13745 2090 ft 14 kts 90°
2026-05-07 22:31 36.07827 -115.13607 2086 ft 18 kts 91°
2026-05-07 22:31 36.07827 -115.13447 2084 ft 20 kts 90°
2026-05-07 22:32 36.07827 -115.13255 2075 ft 25 kts 90°
2026-05-07 22:32 36.07827 -115.13014 2065 ft 30 kts 90°
2026-05-07 22:32 36.07828 -115.12762 2054 ft 19 kts 89°
2026-05-07 22:32 36.07827 -115.12630 2049 ft 6 kts 91°
2026-05-07 22:33 36.07827 -115.12574 2048 ft 7 kts 90°
2026-05-07 22:33 36.07827 -115.12511 2047 ft 8 kts 89°
2026-05-07 22:33 36.07827 -115.12410 2046 ft 15 kts 89°
2026-05-07 22:33 36.07823 -115.12273 2042 ft 16 kts 105°
2026-05-07 22:34 36.07775 -115.12186 2040 ft 11 kts 130°
2026-05-07 22:34 36.07739 -115.12134 2040 ft 0 kts 136°
2026-05-07 22:36 36.07738 -115.12133 2040 ft 2 kts 136°
2026-05-07 22:36 36.07722 -115.12121 2043 ft 3 kts 160°
2026-05-07 22:36 36.07692 -115.12117 2043 ft 6 kts 176°
2026-05-07 22:37 36.07657 -115.12127 2043 ft 4 kts 208°
2026-05-07 22:37 36.07645 -115.12154 2043 ft 8 kts 251°
2026-05-07 22:37 36.07641 -115.12216 2050 ft 6 kts 268°
2026-05-07 22:37 36.07639 -115.12281 2045 ft 21 kts 269°
2026-05-07 22:38 36.07639 -115.12834 2059 ft 105 kts 270°
2026-05-07 22:38 36.07640 -115.14031 2097 ft 171 kts 270°
2026-05-07 22:38 36.07650 -115.15599 2685 ft 185 kts 271°
2026-05-07 22:38 36.07656 -115.17187 3621 ft 184 kts 270°
2026-05-07 22:39 36.07650 -115.18783 4310 ft 188 kts 269°
2026-05-07 22:39 36.07637 -115.20484 4516 ft 209 kts 267°
2026-05-07 22:39 36.07417 -115.22358 4683 ft 233 kts 260°
2026-05-07 22:39 36.07039 -115.24394 5039 ft 251 kts 246°
2026-05-07 22:40 36.05984 -115.26118 5615 ft 260 kts 218°
2026-05-07 22:40 36.04307 -115.27130 6062 ft 276 kts 200°
2026-05-07 22:40 36.02479 -115.27939 6767 ft 281 kts 201°
2026-05-07 22:40 36.00627 -115.28766 7525 ft 285 kts 201°
2026-05-07 22:41 35.98768 -115.29686 7919 ft 289 kts 209°
2026-05-07 22:41 35.96983 -115.30858 8649 ft 291 kts 210°
2026-05-07 22:41 35.95190 -115.32033 9460 ft 293 kts 211°
2026-05-07 22:41 35.93376 -115.33219 10198 ft 297 kts 210°
2026-05-07 22:42 35.91558 -115.34449 10789 ft 299 kts 215°
2026-05-07 22:42 35.90017 -115.36147 10970 ft 297 kts 233°
2026-05-07 22:42 35.88999 -115.38336 11014 ft 295 kts 251°
2026-05-07 22:42 35.88583 -115.40792 11022 ft 293 kts 269°
2026-05-07 22:43 35.88622 -115.43294 11021 ft 292 kts 272°
2026-05-07 22:43 35.88681 -115.45805 11021 ft 293 kts 272°
2026-05-07 22:43 35.88731 -115.48276 11021 ft 292 kts 272°
2026-05-07 22:43 35.88778 -115.50813 11021 ft 292 kts 271°
2026-05-07 22:44 35.88824 -115.53300 11184 ft 296 kts 272°
2026-05-07 22:44 35.88870 -115.55846 11952 ft 298 kts 272°
2026-05-07 22:44 35.88920 -115.58477 12265 ft 318 kts 272°
2026-05-07 22:44 35.88978 -115.61338 12426 ft 341 kts 272°
2026-05-07 22:45 35.89038 -115.64317 12853 ft 352 kts 273°
2026-05-07 22:45 35.89094 -115.67365 13465 ft 358 kts 273°
2026-05-07 22:45 35.89148 -115.70456 14063 ft 363 kts 273°
2026-05-07 22:45 35.89202 -115.73585 14655 ft 367 kts 272°
2026-05-07 22:46 35.89256 -115.76743 15244 ft 370 kts 273°
2026-05-07 22:46 35.89311 -115.79934 15847 ft 374 kts 273°
2026-05-07 22:46 35.89366 -115.83151 16446 ft 377 kts 273°
2026-05-07 22:46 35.89423 -115.86397 17046 ft 380 kts 273°
2026-05-07 22:47 35.89601 -115.89660 17611 ft 382 kts 282°
2026-05-07 22:47 35.90285 -115.92818 18188 ft 382 kts 294°
2026-05-07 22:47 35.91484 -115.95739 18700 ft 382 kts 306°
2026-05-07 22:47 35.93120 -115.98266 19212 ft 382 kts 316°
2026-05-07 22:48 35.95038 -116.00613 19757 ft 385 kts 317°
2026-05-07 22:48 35.96943 -116.02945 20271 ft 387 kts 317°
2026-05-07 22:48 35.98856 -116.05301 20806 ft 390 kts 317°
2026-05-07 22:48 36.00778 -116.07680 21335 ft 393 kts 317°
2026-05-07 22:49 36.02712 -116.10077 21851 ft 395 kts 317°
2026-05-07 22:49 36.04659 -116.12492 22371 ft 398 kts 317°
2026-05-07 22:49 36.06620 -116.14923 22831 ft 401 kts 317°
2026-05-07 22:49 36.08568 -116.17339 23315 ft 403 kts 317°
2026-05-07 22:50 36.10580 -116.19833 23742 ft 405 kts 317°
2026-05-07 22:50 36.12580 -116.22306 24109 ft 408 kts 317°
2026-05-07 22:50 36.14590 -116.24797 24482 ft 410 kts 317°
2026-05-07 22:50 36.16610 -116.27307 24820 ft 413 kts 317°
2026-05-07 22:51 36.18642 -116.29836 25167 ft 416 kts 317°
2026-05-07 22:51 36.20686 -116.32381 25520 ft 418 kts 317°
2026-05-07 22:51 36.22738 -116.34936 25868 ft 420 kts 317°
2026-05-07 22:51 36.24802 -116.37510 26215 ft 422 kts 317°
2026-05-07 22:52 36.26875 -116.40101 26550 ft 424 kts 317°
2026-05-07 22:52 36.28933 -116.42667 26883 ft 426 kts 317°
2026-05-07 22:52 36.31055 -116.45246 27215 ft 428 kts 318°
2026-05-07 22:52 36.33210 -116.47806 27543 ft 430 kts 319°
2026-05-07 22:53 36.35386 -116.50362 27865 ft 432 kts 319°
2026-05-07 22:53 36.37574 -116.52932 28171 ft 434 kts 319°
2026-05-07 22:53 36.39768 -116.55520 28479 ft 436 kts 319°
2026-05-07 22:53 36.41965 -116.58131 28755 ft 439 kts 318°
2026-05-07 22:54 36.44172 -116.60766 29037 ft 441 kts 318°
2026-05-07 22:54 36.46399 -116.63399 29314 ft 443 kts 319°
2026-05-07 22:54 36.48663 -116.66001 29609 ft 444 kts 320°
2026-05-07 22:54 36.50957 -116.68586 29876 ft 446 kts 320°
2026-05-07 22:55 36.53266 -116.71171 30111 ft 448 kts 320°
2026-05-07 22:55 36.55581 -116.73768 30329 ft 449 kts 320°
2026-05-07 22:55 36.57897 -116.76384 30543 ft 450 kts 319°
2026-05-07 22:55 36.60213 -116.79014 30775 ft 451 kts 319°
2026-05-07 22:56 36.62526 -116.81653 31064 ft 450 kts 319°
2026-05-07 22:56 36.64830 -116.84287 31332 ft 449 kts 319°
2026-05-07 22:56 36.67127 -116.86919 31629 ft 448 kts 319°
2026-05-07 22:56 36.69419 -116.89549 31860 ft 448 kts 319°
2026-05-07 22:57 36.71710 -116.92178 32136 ft 447 kts 320°
2026-05-07 22:57 36.74139 -116.94578 32406 ft 445 kts 328°
2026-05-07 22:57 36.76819 -116.96478 32676 ft 443 kts 334°
2026-05-07 22:57 36.79556 -116.98233 32934 ft 442 kts 334°
2026-05-07 22:58 36.82292 -116.99994 33223 ft 442 kts 334°
2026-05-07 22:58 36.84097 -117.01159 33425 ft 441 kts 334°
2026-05-07 22:58 36.86814 -117.02920 33725 ft 440 kts 334°
2026-05-07 22:58 36.89531 -117.04688 33896 ft 439 kts 333°
2026-05-07 22:59 36.92220 -117.06444 33925 ft 435 kts 333°
2026-05-07 22:59 36.97561 -117.09923 33933 ft 432 kts 334°
2026-05-07 23:00 37.02890 -117.13391 33930 ft 431 kts 333°
2026-05-07 23:00 37.08209 -117.16859 33944 ft 431 kts 333°
2026-05-07 23:01 37.13539 -117.20345 33954 ft 433 kts 333°
2026-05-07 23:01 37.18881 -117.23841 33961 ft 433 kts 333°
2026-05-07 23:02 37.24220 -117.27334 33961 ft 433 kts 333°
2026-05-07 23:02 37.29512 -117.30927 33964 ft 433 kts 327°
2026-05-07 23:03 37.34195 -117.35687 33963 ft 434 kts 321°
2026-05-07 23:03 37.38790 -117.40602 33959 ft 434 kts 321°
2026-05-07 23:04 37.43382 -117.45523 33960 ft 434 kts 321°
2026-05-07 23:04 37.47495 -117.51055 33942 ft 436 kts 303°
2026-05-07 23:05 37.49824 -117.58110 33933 ft 441 kts 283°
2026-05-07 23:05 37.50566 -117.65799 33930 ft 443 kts 277°
2026-05-07 23:06 37.51197 -117.73522 33926 ft 443 kts 277°
2026-05-07 23:06 37.51821 -117.81248 33931 ft 444 kts 277°
2026-05-07 23:07 37.52443 -117.88980 33935 ft 444 kts 277°
2026-05-07 23:07 37.53061 -117.96713 33939 ft 444 kts 277°
2026-05-07 23:08 37.53681 -118.04449 33940 ft 444 kts 277°
2026-05-07 23:08 37.54293 -118.12183 33942 ft 444 kts 277°
2026-05-07 23:09 37.54891 -118.19923 33990 ft 444 kts 277°
2026-05-07 23:09 37.55482 -118.27658 34001 ft 443 kts 277°
2026-05-07 23:10 37.56079 -118.35388 34006 ft 443 kts 277°
2026-05-07 23:10 37.56666 -118.43115 34001 ft 443 kts 277°
2026-05-07 23:11 37.57246 -118.50834 33994 ft 443 kts 277°
2026-05-07 23:11 37.57533 -118.54698 34106 ft 442 kts 277°
2026-05-07 23:11 37.57821 -118.58560 34139 ft 443 kts 277°
2026-05-07 23:12 37.58393 -118.66284 34201 ft 442 kts 276°
2026-05-07 23:12 37.58960 -118.74000 34255 ft 442 kts 276°
2026-05-07 23:13 37.59519 -118.81662 34252 ft 442 kts 276°
2026-05-07 23:13 37.60073 -118.89371 34254 ft 441 kts 276°
2026-05-07 23:14 37.60624 -118.97072 34233 ft 441 kts 277°
2026-05-07 23:14 37.61166 -119.04772 34197 ft 441 kts 277°
2026-05-07 23:14 37.61439 -119.08622 34069 ft 441 kts 277°
2026-05-07 23:15 37.61708 -119.12475 34079 ft 441 kts 277°
2026-05-07 23:15 37.62237 -119.20174 34085 ft 441 kts 276°
2026-05-07 23:16 37.62766 -119.27883 34089 ft 441 kts 276°
2026-05-07 23:16 37.63292 -119.35594 34096 ft 441 kts 277°
2026-05-07 23:17 37.63817 -119.43309 34101 ft 441 kts 276°
2026-05-07 23:17 37.64338 -119.51086 34102 ft 442 kts 276°
2026-05-07 23:18 37.64844 -119.58791 33858 ft 447 kts 275°
2026-05-07 23:18 37.65099 -119.62709 33574 ft 448 kts 276°
2026-05-07 23:18 37.65353 -119.66621 33309 ft 447 kts 276°
2026-05-07 23:18 37.65605 -119.70525 33057 ft 446 kts 275°
2026-05-07 23:19 37.65853 -119.74419 32777 ft 444 kts 275°
2026-05-07 23:19 37.66100 -119.78296 32520 ft 443 kts 276°
2026-05-07 23:19 37.66343 -119.82157 32265 ft 440 kts 275°
2026-05-07 23:19 37.66585 -119.86009 31994 ft 440 kts 276°
2026-05-07 23:20 37.66829 -119.89847 31740 ft 439 kts 275°
2026-05-07 23:20 37.67073 -119.93677 31500 ft 437 kts 275°
2026-05-07 23:20 37.67314 -119.97496 31238 ft 436 kts 276°
2026-05-07 23:20 37.67552 -120.01302 30995 ft 434 kts 276°
2026-05-07 23:21 37.67787 -120.05096 30745 ft 433 kts 275°
2026-05-07 23:21 37.68022 -120.08877 30501 ft 431 kts 276°
2026-05-07 23:21 37.68253 -120.12646 30261 ft 430 kts 275°
2026-05-07 23:21 37.68480 -120.16398 30017 ft 428 kts 276°
2026-05-07 23:22 37.68702 -120.20133 29730 ft 426 kts 275°
2026-05-07 23:22 37.68927 -120.23850 29456 ft 424 kts 276°
2026-05-07 23:22 37.69150 -120.27548 29183 ft 422 kts 276°
2026-05-07 23:22 37.69375 -120.31232 28910 ft 420 kts 276°
2026-05-07 23:23 37.69596 -120.34903 28641 ft 419 kts 275°
2026-05-07 23:23 37.69807 -120.38562 28370 ft 417 kts 274°
2026-05-07 23:23 37.69727 -120.42198 27886 ft 413 kts 264°
2026-05-07 23:23 37.69322 -120.45728 27360 ft 410 kts 262°
2026-05-07 23:24 37.68896 -120.49322 26841 ft 407 kts 262°
2026-05-07 23:24 37.68482 -120.52799 26332 ft 405 kts 262°
2026-05-07 23:24 37.68066 -120.56299 25835 ft 402 kts 262°
2026-05-07 23:24 37.67656 -120.59774 25347 ft 399 kts 263°
2026-05-07 23:25 37.67251 -120.63230 24872 ft 397 kts 262°
2026-05-07 23:25 37.66849 -120.66667 24394 ft 395 kts 262°
2026-05-07 23:25 37.66446 -120.70087 23923 ft 393 kts 262°
2026-05-07 23:25 37.66043 -120.73490 23409 ft 392 kts 262°
2026-05-07 23:26 37.65639 -120.76879 22911 ft 389 kts 262°
2026-05-07 23:26 37.65238 -120.80232 22443 ft 385 kts 262°
2026-05-07 23:26 37.64837 -120.83560 21964 ft 382 kts 262°
2026-05-07 23:26 37.64439 -120.86869 21497 ft 380 kts 262°
2026-05-07 23:27 37.63646 -120.93419 20537 ft 376 kts 262°
2026-05-07 23:27 37.63252 -120.96671 20038 ft 375 kts 262°
2026-05-07 23:27 37.62841 -120.99912 19563 ft 373 kts 261°
2026-05-07 23:28 37.62417 -121.03115 19140 ft 370 kts 261°
2026-05-07 23:28 37.61986 -121.06301 18784 ft 366 kts 261°
2026-05-07 23:28 37.61557 -121.09447 18361 ft 363 kts 261°
2026-05-07 23:28 37.61128 -121.12583 17875 ft 362 kts 261°
2026-05-07 23:29 37.60705 -121.15699 17446 ft 359 kts 261°
2026-05-07 23:29 37.60287 -121.18782 17026 ft 355 kts 261°
2026-05-07 23:29 37.59872 -121.21842 16588 ft 353 kts 261°
2026-05-07 23:29 37.59462 -121.24885 16170 ft 351 kts 261°
2026-05-07 23:30 37.59059 -121.27907 15760 ft 348 kts 261°
2026-05-07 23:30 37.58690 -121.30912 15356 ft 346 kts 262°
2026-05-07 23:30 37.58350 -121.33904 14950 ft 344 kts 262°
2026-05-07 23:30 37.58023 -121.36880 14553 ft 342 kts 262°
2026-05-07 23:31 37.57698 -121.39835 14181 ft 339 kts 262°
2026-05-07 23:31 37.57370 -121.42766 13814 ft 336 kts 262°
2026-05-07 23:31 37.57043 -121.45673 13369 ft 334 kts 262°
2026-05-07 23:31 37.56712 -121.48562 12921 ft 332 kts 262°
2026-05-07 23:32 37.56380 -121.51427 12516 ft 329 kts 262°
2026-05-07 23:32 37.56049 -121.54253 12272 ft 321 kts 261°
2026-05-07 23:32 37.55726 -121.56983 12143 ft 310 kts 261°
2026-05-07 23:32 37.55410 -121.59627 11941 ft 302 kts 261°
2026-05-07 23:33 37.55091 -121.62225 11630 ft 298 kts 258°
2026-05-07 23:33 37.54544 -121.64723 11351 ft 295 kts 253°
2026-05-07 23:33 37.53962 -121.67183 11043 ft 292 kts 253°
2026-05-07 23:33 37.53377 -121.69631 10678 ft 291 kts 253°
2026-05-07 23:34 37.52792 -121.72072 10311 ft 290 kts 253°
2026-05-07 23:34 37.52214 -121.74484 10097 ft 284 kts 253°
2026-05-07 23:34 37.51652 -121.76818 9980 ft 273 kts 253°
2026-05-07 23:34 37.51112 -121.79068 9812 ft 265 kts 253°
2026-05-07 23:35 37.50587 -121.81251 9507 ft 262 kts 253°
2026-05-07 23:35 37.50069 -121.83416 9171 ft 257 kts 253°
2026-05-07 23:35 37.49552 -121.85578 8488 ft 258 kts 252°
2026-05-07 23:35 37.49166 -121.87785 7815 ft 260 kts 265°
2026-05-07 23:36 37.49219 -121.90059 7159 ft 261 kts 274°
2026-05-07 23:36 37.49362 -121.92363 6551 ft 259 kts 274°
2026-05-07 23:36 37.49494 -121.94550 6175 ft 247 kts 274°
2026-05-07 23:36 37.49618 -121.96645 5899 ft 233 kts 273°
2026-05-07 23:37 37.49732 -121.98639 5636 ft 226 kts 273°
2026-05-07 23:37 37.49843 -122.00600 5364 ft 223 kts 273°
2026-05-07 23:37 37.49953 -122.02532 5136 ft 220 kts 273°
2026-05-07 23:37 37.50060 -122.04432 4882 ft 216 kts 273°
2026-05-07 23:38 37.50166 -122.06302 4628 ft 212 kts 273°
2026-05-07 23:38 37.50269 -122.08135 4386 ft 208 kts 274°
2026-05-07 23:38 37.50523 -122.09902 4165 ft 203 kts 289°
2026-05-07 23:38 37.51131 -122.11448 4030 ft 191 kts 297°
2026-05-07 23:39 37.51745 -122.12900 3925 ft 187 kts 297°
2026-05-07 23:39 37.52348 -122.14341 3733 ft 186 kts 297°
2026-05-07 23:39 37.52946 -122.15758 3510 ft 181 kts 297°
2026-05-07 23:39 37.53525 -122.17131 3282 ft 174 kts 297°
2026-05-07 23:40 37.54084 -122.18453 3061 ft 168 kts 297°
2026-05-07 23:40 37.54622 -122.19728 2849 ft 161 kts 298°
2026-05-07 23:40 37.55137 -122.20949 2642 ft 154 kts 297°
2026-05-07 23:40 37.55622 -122.22097 2473 ft 143 kts 297°
2026-05-07 23:41 37.56080 -122.23185 2270 ft 138 kts 296°
2026-05-07 23:41 37.56527 -122.24243 2086 ft 137 kts 297°
2026-05-07 23:41 37.56975 -122.25306 1902 ft 135 kts 297°
2026-05-07 23:41 37.57411 -122.26343 1728 ft 133 kts 297°
2026-05-07 23:42 37.57848 -122.27379 1538 ft 133 kts 296°
2026-05-07 23:42 37.58282 -122.28411 1350 ft 135 kts 296°
2026-05-07 23:42 37.58718 -122.29446 1168 ft 132 kts 295°
2026-05-07 23:42 37.59150 -122.30472 995 ft 132 kts 295°
2026-05-07 23:43 37.59576 -122.31485 817 ft 130 kts 297°
2026-05-07 23:43 37.60004 -122.32503 654 ft 132 kts 297°
2026-05-07 23:43 37.60432 -122.33522 474 ft 131 kts 297°
2026-05-07 23:43 37.60857 -122.34526 313 ft 132 kts 298°
2026-05-07 23:44 37.61288 -122.35529 114 ft 129 kts 297°
2026-05-07 23:44 37.61701 -122.36525 43 ft 127 kts 296°
2026-05-07 23:44 37.62075 -122.37432 21 ft 99 kts 296°
2026-05-07 23:44 37.62307 -122.37990 21 ft 47 kts 298°
2026-05-07 23:45 37.62376 -122.38156 21 ft 7 kts 297°
2026-05-07 23:45 37.62373 -122.38204 21 ft 0 kts 202°
2026-05-07 23:45 37.62362 -122.38209 22 ft 4 kts 203°
2026-05-07 23:45 37.62339 -122.38223 21 ft 3 kts 205°
2026-05-07 23:46 37.62306 -122.38243 22 ft 13 kts 208°
2026-05-07 23:46 37.62212 -122.38290 21 ft 15 kts 195°
2026-05-07 23:46 37.62114 -122.38325 21 ft 14 kts 197°
2026-05-07 23:46 37.62031 -122.38333 21 ft 10 kts 154°
2026-05-07 23:47 37.61992 -122.38265 21 ft 10 kts 118°
2026-05-07 23:47 37.61960 -122.38189 21 ft 10 kts 118°
2026-05-07 23:47 37.61929 -122.38115 21 ft 9 kts 118°
2026-05-07 23:47 37.61897 -122.38045 21 ft 10 kts 124°
2026-05-07 23:48 37.61845 -122.37982 22 ft 11 kts 150°
2026-05-07 23:48 37.61781 -122.37950 21 ft 9 kts 169°
2026-05-07 23:48 37.61720 -122.37948 20 ft 8 kts 185°
2026-05-07 23:48 37.61661 -122.37966 20 ft 10 kts 200°
2026-05-07 23:49 37.61601 -122.38006 22 ft 10 kts 209°
2026-05-07 23:49 37.61545 -122.38055 20 ft 10 kts 240°
2026-05-07 23:49 37.61559 -122.38140 22 ft 11 kts 300°
2026-05-07 23:49 37.61569 -122.38162 20 ft 1 kts 298°
2026-05-07 23:50 37.61570 -122.38184 20 ft 2 kts 246°
2026-05-07 23:50 37.61553 -122.38203 20 ft 3 kts 222°
2026-05-07 23:50 37.61539 -122.38219 20 ft 2 kts 223°
2026-05-07 23:50 37.61534 -122.38225 20 ft 0 kts 223°